FW9002 Weather Reports


Display with metric or nautical units.
time (UTC)temp
F
wind
direction
speed
MPH
gust
MPH
rain 1hr
in
rain 24hr
in
rain mn
in
humidity
%
barometer
mb
20260506141252 62 116 0.0 0.0 0.00 0.00 0.00 48 1015.2
20260506140750 63 115 1.0 1.0 0.00 0.00 0.00 48 1015.5
20260506140246 63 99 1.0 1.0 0.00 0.00 0.00 47 1015.4
20260506135743 62 91 0.0 0.0 0.00 0.00 0.00 53 1015.3
20260506135239 61 91 0.0 0.0 0.00 0.00 0.00 59 1014.9
20260506134736 59 91 0.0 0.0 0.00 0.00 0.00 60 1015.2
20260506134233 59 91 0.0 0.0 0.00 0.00 0.00 63 1015.2
20260506133730 58 89 0.0 0.0 0.00 0.00 0.00 63 1015.0
20260506133226 57 93 1.0 1.0 0.00 0.00 0.00 65 1014.9
20260506132723 57 92 0.0 0.0 0.00 0.00 0.00 67 1015.0
20260506132221 56 83 0.0 0.0 0.00 0.00 0.00 68 1015.2
20260506131719 55 83 0.0 0.0 0.00 0.00 0.00 70 1015.0
20260506131214 54 83 0.0 0.0 0.00 0.00 0.00 73 1014.9
20260506130711 52 83 0.0 0.0 0.00 0.00 0.00 76 1014.8
20260506130208 51 83 0.0 0.0 0.00 0.00 0.00 78 1015.0
20260506125707 51 83 0.0 0.0 0.00 0.00 0.00 79 1014.8
20260506125204 51 83 1.0 1.0 0.00 0.00 0.00 80 1014.6
20260506124702 51 82 0.0 0.0 0.00 0.00 0.00 80 1014.8
20260506124200 50 83 0.0 0.0 0.00 0.00 0.00 80 1014.6
20260506123657 50 83 0.0 0.0 0.00 0.00 0.00 80 1014.8
20260506123155 50 83 0.0 0.0 0.00 0.00 0.00 81 1014.7
20260506122652 50 83 0.0 0.0 0.00 0.00 0.00 81 1014.5
20260506122150 50 83 0.0 0.0 0.00 0.00 0.00 79 1014.4
20260506121647 51 83 0.0 0.0 0.00 0.00 0.00 78 1014.5
20260506121143 51 83 0.0 0.0 0.00 0.00 0.00 76 1014.5
20260506120641 51 83 0.0 0.0 0.00 0.00 0.00 77 1014.3
20260506120138 51 82 0.0 0.0 0.00 0.00 0.00 76 1014.5
20260506115637 52 83 0.0 0.0 0.00 0.00 0.00 75 1014.3
20260506115134 52 83 0.0 0.0 0.00 0.00 0.00 74 1014.3
20260506114631 52 82 0.0 0.0 0.00 0.00 0.00 74 1014.3
20260506114129 52 82 0.0 0.0 0.00 0.00 0.00 74 1014.2
20260506113628 52 83 0.0 0.0 0.00 0.00 0.00 75 1014.1
20260506113125 52 83 0.0 0.0 0.00 0.00 0.00 74 1014.0
20260506112621 52 82 0.0 0.0 0.00 0.00 0.00 74 1014.1
20260506112118 52 82 0.0 0.0 0.00 0.00 0.00 72 1014.2
20260506111616 53 82 0.0 0.0 0.00 0.00 0.00 70 1013.9
20260506111114 53 82 0.0 0.0 0.00 0.00 0.00 70 1014.1
20260506110611 53 82 0.0 0.0 0.00 0.00 0.00 69 1014.0
20260506110108 53 82 0.0 0.0 0.00 0.00 0.00 68 1014.1
20260506105604 53 82 0.0 0.0 0.00 0.00 0.00 67 1014.2
20260506105101 53 82 0.0 0.0 0.00 0.00 0.00 66 1013.8
20260506104600 53 84 1.0 2.0 0.00 0.00 0.00 67 1014.0
20260506104057 53 85 0.0 0.0 0.00 0.00 0.00 67 1014.0
20260506103554 53 85 0.0 0.0 0.00 0.00 0.00 65 1013.8
20260506103050 53 85 0.0 0.0 0.00 0.00 0.00 65 1013.8
20260506102549 54 85 0.0 0.0 0.00 0.00 0.00 63 1013.6
20260506102046 55 85 0.0 0.0 0.00 0.00 0.00 62 1013.5
20260506101543 55 85 0.0 0.0 0.00 0.00 0.00 60 1013.6
20260506101040 55 84 0.0 0.0 0.00 0.00 0.00 59 1013.5
20260506100538 56 84 0.0 0.0 0.00 0.00 0.00 57 1013.5
20260506100036 55 82 1.0 1.0 0.00 0.00 0.00 56 1013.5
20260506095534 56 317 1.0 1.0 0.00 0.00 0.00 57 1013.4
20260506095030 56 316 0.0 0.0 0.00 0.00 0.00 55 1013.6
20260506094528 57 316 0.0 0.0 0.00 0.00 0.00 53 1013.4
20260506094026 57 316 0.0 0.0 0.00 0.00 0.00 52 1013.3
20260506093524 57 316 0.0 0.0 0.00 0.00 0.00 51 1013.3
20260506093021 57 316 0.0 0.0 0.00 0.00 0.00 50 1013.1
20260506092519 57 316 1.0 1.0 0.00 0.00 0.00 50 1013.2
20260506092015 57 323 1.0 1.0 0.00 0.00 0.00 50 1013.2
20260506091514 56 280 2.0 3.0 0.00 0.00 0.00 52 1013.2
20260506091011 56 330 0.0 0.0 0.00 0.00 0.00 55 1013.2
20260506090509 57 332 0.0 0.0 0.00 0.00 0.00 54 1013.1
20260506090004 57 332 0.0 0.0 0.00 0.00 0.00 53 1013.2
20260506085501 58 307 0.0 0.0 0.00 0.00 0.00 53 1013.3
20260506084958 59 317 1.0 0.0 0.00 0.00 0.00 52 1013.2
20260506084455 59 357 1.0 1.0 0.00 0.00 0.00 51 1013.3
20260506083951 60 355 1.0 2.0 0.00 0.00 0.00 50 1013.1
20260506083448 60 277 1.0 2.0 0.00 0.00 0.00 50 1013.3
20260506082945 60 235 2.0 2.0 0.00 0.00 0.00 52 1013.3
20260506082442 60 241 1.0 1.0 0.00 0.00 0.00 55 1013.2
20260506081938 60 251 1.0 1.0 0.00 0.00 0.00 55 1013.2
20260506081437 60 232 1.0 1.0 0.00 0.00 0.00 56 1013.2
20260506080933 60 232 1.0 1.0 0.00 0.00 0.00 57 1013.3
20260506080430 60 231 1.0 2.0 0.00 0.00 0.00 57 1013.5
20260506073414 60 272 0.0 0.0 0.00 0.00 0.00 58 1013.4
20260506072912 60 272 0.0 0.0 0.00 0.00 0.00 58 1013.2
20260506072409 60 265 0.0 0.0 0.00 0.00 0.00 57 1013.4
20260506071906 60 257 0.0 0.0 0.00 0.00 0.00 57 1013.5
20260506071404 60 271 0.0 0.0 0.00 0.00 0.00 57 1013.3
20260506070901 61 293 0.0 0.0 0.00 0.00 0.00 56 1013.2
20260506070358 61 291 0.0 0.0 0.00 0.00 0.00 55 1013.3
20260506062335 62 313 1.0 1.0 0.00 0.19 0.19 44 1013.0
20260506061831 63 300 3.0 3.0 0.00 0.19 0.19 43 1013.1
20260506061328 63 292 0.0 0.0 0.00 0.19 0.19 42 1013.1
20260506060826 63 308 1.0 1.0 0.00 0.19 0.19 41 1013.3
20260506060324 63 306 3.0 3.0 0.00 0.19 0.19 41 1013.1
20260506051255 65 263 3.0 5.0 0.00 0.19 0.19 47 1012.8
20260506050753 65 301 1.0 2.0 0.00 0.19 0.19 48 1012.6
20260506050250 65 308 3.0 3.0 0.00 0.19 0.19 47 1012.7
20260506044741 66 281 3.0 3.0 0.00 0.19 0.19 46 1012.6
20260506044238 65 328 5.0 6.0 0.00 0.19 0.19 46 1012.2
20260506043736 66 301 2.0 2.0 0.00 0.19 0.19 45 1012.5
20260506043233 65 293 1.0 2.0 0.00 0.19 0.19 45 1012.2
20260506042731 66 293 2.0 2.0 0.00 0.19 0.19 44 1012.1
20260506042229 66 300 0.0 1.0 0.00 0.19 0.19 44 1012.4
20260506041728 66 304 2.0 3.0 0.00 0.19 0.19 44 1012.2
20260506041224 65 242 3.0 3.0 0.00 0.19 0.19 42 1011.9
20260506040722 65 313 1.0 1.0 0.00 0.19 0.19 41 1011.8
20260506040219 65 341 0.0 0.0 0.00 0.19 0.19 40 1011.8
20260506035715 66 262 0.0 0.0 0.00 0.19 0.19 39 1011.7
20260506035213 66 246 1.0 1.0 0.00 0.19 0.19 38 1011.6
20260506034709 66 269 1.0 1.0 0.00 0.19 0.19 37 1011.5
20260506034207 66 278 0.0 0.0 0.00 0.19 0.19 37 1011.5
20260506033704 67 307 1.0 1.0 0.00 0.19 0.19 36 1011.4
20260506033200 67 306 0.0 0.0 0.00 0.19 0.19 36 1011.3
20260506032658 67 304 1.0 1.0 0.00 0.19 0.19 35 1011.3
20260506032155 68 301 2.0 2.0 0.00 0.19 0.19 34 1011.2
20260506031651 68 276 2.0 2.0 0.00 0.19 0.19 33 1010.9
20260506031148 68 330 4.0 6.0 0.00 0.19 0.19 33 1011.1
20260506030647 68 319 2.0 3.0 0.00 0.19 0.19 32 1011.0
20260506030144 68 299 2.0 2.0 0.00 0.19 0.19 32 1010.9
20260506025640 69 326 0.0 0.0 0.00 0.19 0.19 31 1010.9
20260506025136 69 266 1.0 1.0 0.00 0.19 0.19 31 1011.1
20260506024634 69 337 3.0 6.0 0.00 0.19 0.19 31 1010.9
20260506024130 68 338 2.0 2.0 0.00 0.19 0.19 31 1010.5
20260506023627 68 347 3.0 6.0 0.00 0.19 0.19 31 1010.4
20260506023124 69 268 2.0 2.0 0.00 0.19 0.19 30 1010.5
20260506022621 69 280 1.0 2.0 0.00 0.19 0.19 31 1010.3
20260506022119 69 283 2.0 2.0 0.00 0.19 0.19 30 1010.1
20260506021616 69 325 1.0 1.0 0.00 0.19 0.19 30 1010.1
20260506021113 69 330 4.0 7.0 0.00 0.19 0.19 30 1010.1
20260506020610 69 282 4.0 5.0 0.00 0.19 0.19 31 1009.9
20260506020108 70 322 5.0 6.0 0.00 0.19 0.19 31 1009.7
20260506015605 70 307 3.0 5.0 0.00 0.19 0.19 31 1009.8
20260506015102 71 312 3.0 5.0 0.00 0.19 0.19 31 1009.8
20260506014600 71 302 5.0 6.0 0.00 0.19 0.19 31 1009.7
20260506014055 71 292 7.0 9.0 0.00 0.19 0.19 31 1009.7
20260506013554 72 274 4.0 6.0 0.00 0.19 0.19 31 1009.7
20260506013050 73 309 4.0 9.0 0.00 0.19 0.19 31 1009.3
20260506012546 73 309 3.0 6.0 0.00 0.19 0.19 31 1009.7
20260506012043 73 292 4.0 3.0 0.00 0.19 0.19 29 1009.6
20260506011541 73 294 4.0 6.0 0.00 0.19 0.19 28 1009.7
20260506011036 74 305 2.0 2.0 0.00 0.19 0.19 28 1009.5
20260506010531 74 287 5.0 9.0 0.00 0.19 0.19 28 1009.5
20260506010027 74 335 3.0 5.0 0.00 0.19 0.19 28 1009.1
20260506005524 75 271 7.0 10.0 0.00 0.19 0.19 26 1009.0
20260506005020 75 246 3.0 3.0 0.00 0.19 0.19 26 1009.0
20260506004517 75 254 6.0 9.0 0.00 0.19 0.19 26 1009.0
20260506004014 75 307 2.0 2.0 0.00 0.19 0.19 26 1008.9
20260506003510 75 289 3.0 5.0 0.00 0.19 0.19 26 1009.2
20260506003006 75 315 5.0 7.0 0.00 0.19 0.19 26 1009.0
20260506002502 75 314 2.0 3.0 0.00 0.19 0.19 27 1008.9
20260506001958 76 249 2.0 2.0 0.00 0.19 0.19 26 1009.1
20260506001455 76 304 5.0 6.0 0.00 0.19 0.19 25 1008.9
20260506000952 76 290 4.0 5.0 0.00 0.19 0.19 26 1009.0
20260506000449 76 298 6.0 8.0 0.00 0.19 0.19 26 1008.8
20260505235946 77 267 6.0 11.0 0.00 0.19 0.19 26 1008.9
20260505235445 76 294 7.0 9.0 0.00 0.19 0.19 26 1008.5
20260505234941 74 274 4.0 6.0 0.00 0.19 0.19 27 1008.6
20260505234439 75 314 4.0 8.0 0.00 0.19 0.19 28 1008.5
20260505233935 76 254 7.0 9.0 0.00 0.19 0.19 26 1008.6
20260505233433 75 233 10.0 13.0 0.00 0.19 0.19 27 1008.5
20260505232930 74 294 3.0 3.0 0.00 0.19 0.19 29 1008.6
20260505232428 74 230 5.0 6.0 0.00 0.19 0.19 28 1008.5
20260505231925 76 227 2.0 3.0 0.00 0.19 0.19 28 1008.8
20260505231422 76 298 5.0 6.0 0.00 0.19 0.19 26 1008.6
20260505230920 75 222 2.0 2.0 0.00 0.19 0.19 26 1008.6
20260505230418 76 329 4.0 5.0 0.00 0.19 0.19 27 1008.6
20260505225914 77 236 5.0 7.0 0.00 0.19 0.19 25 1008.8
20260505225411 77 190 3.0 3.0 0.00 0.19 0.19 25 1008.5
20260505224906 77 295 2.0 3.0 0.00 0.19 0.19 26 1008.9
20260505224404 77 340 3.0 5.0 0.00 0.19 0.19 26 1008.9
20260505223901 76 251 9.0 9.0 0.00 0.19 0.19 26 1008.8
20260505223358 76 200 8.0 14.0 0.00 0.19 0.19 27 1009.0
20260505222853 77 267 6.0 8.0 0.00 0.19 0.19 25 1009.1
20260505222350 76 297 7.0 9.0 0.00 0.19 0.19 28 1009.1
20260505221847 77 301 7.0 9.0 0.00 0.19 0.19 26 1009.2
20260505221344 76 185 6.0 8.0 0.00 0.19 0.19 27 1009.3
20260505220841 77 272 5.0 7.0 0.00 0.19 0.19 28 1009.0
20260505220338 76 265 2.0 2.0 0.00 0.19 0.19 30 1009.2
20260505215836 76 270 7.0 10.0 0.00 0.19 0.19 28 1009.2
20260505215333 76 266 4.0 7.0 0.00 0.19 0.19 27 1009.5
20260505214831 77 280 9.0 13.0 0.00 0.19 0.19 29 1009.6
20260505214329 76 285 6.0 10.0 0.00 0.19 0.19 28 1009.6
20260505213825 76 304 9.0 15.0 0.00 0.19 0.19 27 1009.6
20260505213323 76 312 8.0 15.0 0.00 0.19 0.19 27 1009.5
20260505212819 76 288 3.0 5.0 0.00 0.19 0.19 29 1009.5
20260505212317 76 335 16.0 18.0 0.00 0.19 0.19 27 1009.7
20260505211812 76 301 5.0 8.0 0.00 0.19 0.19 30 1009.7
20260505211310 76 272 5.0 7.0 0.00 0.19 0.19 29 1009.8
20260505210806 76 276 11.0 17.0 0.00 0.19 0.19 29 1009.7
20260505210303 77 274 8.0 9.0 0.00 0.19 0.19 30 1010.0
20260505205800 76 237 4.0 5.0 0.00 0.19 0.19 32 1009.8
20260505205259 76 272 11.0 16.0 0.00 0.19 0.19 31 1010.0
20260505204755 76 257 6.0 8.0 0.00 0.19 0.19 33 1009.9
20260505204253 76 327 3.0 5.0 0.00 0.19 0.19 32 1010.0
20260505203750 76 256 6.0 9.0 0.00 0.19 0.19 33 1010.0
20260505203247 75 299 5.0 8.0 0.00 0.19 0.19 34 1009.9
20260505202742 74 265 5.0 6.0 0.00 0.19 0.19 35 1010.0
20260505202239 75 254 6.0 8.0 0.00 0.19 0.19 34 1009.9
20260505201735 73 303 5.0 6.0 0.00 0.19 0.19 36 1010.0
20260505201233 73 310 4.0 6.0 0.00 0.19 0.19 37 1010.2
20260505200731 73 295 5.0 7.0 0.00 0.19 0.19 38 1010.1
20260505200228 72 275 5.0 6.0 0.00 0.19 0.19 40 1010.5
20260505195723 72 312 5.0 6.0 0.00 0.19 0.19 42 1010.2
20260505195221 72 258 4.0 6.0 0.00 0.19 0.19 42 1010.3
20260505194718 72 261 1.0 2.0 0.00 0.19 0.19 47 1010.4
20260505194214 71 333 1.0 2.0 0.00 0.19 0.19 47 1010.3
20260505193710 72 357 3.0 3.0 0.00 0.19 0.19 47 1010.4
20260505193208 72 294 1.0 1.0 0.00 0.19 0.19 48 1010.2
20260505192707 73 124 1.0 1.0 0.00 0.19 0.19 48 1010.5
20260505192204 73 106 1.0 2.0 0.00 0.19 0.19 47 1010.5
20260505191702 71 99 1.0 1.0 0.00 0.19 0.19 50 1010.5
20260505191200 71 86 1.0 1.0 0.00 0.19 0.19 50 1010.5
20260505190656 70 68 1.0 1.0 0.00 0.19 0.19 52 1010.6
20260505190155 71 67 0.0 0.0 0.00 0.19 0.19 52 1010.9
20260505185653 71 341 1.0 1.0 0.00 0.19 0.19 49 1011.1
20260505185149 70 0 0.0 0.0 0.00 0.19 0.19 51 1011.2
20260505184645 70 56 0.0 0.0 0.00 0.19 0.19 53 1011.2
20260505184143 70 21 0.0 0.0 0.00 0.19 0.19 52 1011.4
20260505183639 69 26 1.0 2.0 0.00 0.19 0.19 52 1011.5
20260505183137 69 60 1.0 1.0 0.00 0.19 0.19 52 1011.4
20260505182633 69 10 1.0 1.0 0.00 0.19 0.19 54 1011.5
20260505182130 69 246 1.0 1.0 0.00 0.19 0.19 53 1011.4
20260505181626 69 223 2.0 2.0 0.00 0.19 0.19 52 1011.7
20260505181124 68 313 2.0 2.0 0.00 0.19 0.19 54 1011.6
20260505180620 69 264 2.0 2.0 0.00 0.19 0.19 55 1011.8
20260505180118 70 356 1.0 1.0 0.00 0.19 0.19 53 1011.7
20260505175613 70 57 1.0 1.0 0.00 0.19 0.19 54 1011.7
20260505175110 70 300 3.0 3.0 0.00 0.19 0.19 52 1011.6
20260505174607 70 245 2.0 3.0 0.00 0.19 0.19 54 1011.7
20260505174103 69 184 1.0 1.0 0.00 0.19 0.19 54 1012.0
20260505173559 69 299 0.0 0.0 0.00 0.19 0.19 56 1011.7
20260505173056 69 254 1.0 2.0 0.00 0.19 0.19 56 1011.7
20260505172554 69 16 1.0 1.0 0.00 0.19 0.19 57 1011.7
20260505172050 68 157 0.0 0.0 0.00 0.19 0.19 58 1011.9
20260505171545 68 258 2.0 2.0 0.00 0.19 0.19 58 1012.0
20260505171043 68 62 0.0 0.0 0.00 0.19 0.19 58 1011.6
20260505170539 68 69 1.0 1.0 0.00 0.19 0.19 58 1011.7
20260505170036 69 9 1.0 1.0 0.00 0.19 0.19 58 1011.8
20260505165531 69 328 3.0 3.0 0.00 0.19 0.19 61 1011.7
20260505165027 68 93 0.0 0.0 0.00 0.19 0.19 62 1011.8
20260505164523 67 6 0.0 0.0 0.00 0.19 0.19 65 1011.5
20260505164021 66 63 1.0 2.0 0.00 0.19 0.19 66 1011.8
20260505163519 66 23 1.0 1.0 0.00 0.19 0.19 65 1011.9
20260505163016 66 1 1.0 2.0 0.00 0.19 0.19 67 1011.8
20260505162509 65 266 0.0 0.0 0.00 0.19 0.19 67 1011.9
20260505162006 65 300 1.0 1.0 0.00 0.19 0.19 67 1011.9
20260505161503 65 194 0.0 0.0 0.00 0.19 0.19 70 1011.9
20260505161000 64 193 0.0 0.0 0.00 0.19 0.19 68 1011.9
20260505160458 65 156 1.0 0.0 0.00 0.19 0.19 68 1012.0
20260505152934 64 184 0.0 0.0 0.00 0.19 0.19 82 1011.7
20260505152432 64 183 0.0 0.0 0.00 0.19 0.19 78 1011.5
20260505151931 63 202 0.0 0.0 0.00 0.19 0.19 81 1011.7
20260505151422 63 202 0.0 0.0 0.00 0.19 0.19 83 1011.5
20260505150920 63 202 0.0 0.0 0.00 0.19 0.19 84 1011.7
20260505150416 63 202 0.0 0.0 0.00 0.19 0.19 84 1011.6